sat.trackr.live / text

‹ back to catalog

ONEWEB-0175

NORAD 48073 · 2021-025AH

PAYLOAD ACTIVE UNKNOWN

§ Identity

Operator
Country
UK
Launch date
2021-03-25
Launch site
VOSTO
Launch vehicle
Mass (kg)
RCS (m²)

Purposes: comms

External: N2YO · Heavens-Above · Gunter

§ Orbital elements

Epoch: 2026-05-25T00:06:01.100160Z

Period
109.63 min
Inclination
87.8950°
Eccentricity
0.0001529
Mean motion
13.13469550 rev/d
Perigee alt
1,208.6 km
Apogee alt
1,210.9 km
Semi-major
7,587.9 km
B*
-1.2543e-4
RAAN
324.8205°
Arg perigee
83.7090°
Mean anomaly
276.4213°
Rev number
25,044

§ Raw data

ONEWEB-01751 48073U 21025AH  26145.00417940 -.00000033  00000+0 -12543-3 0  99902 48073  87.8950 324.8205 0001529  83.7090 276.4213 13.13469550250446

JSON: /api/v1/satellites/48073 · /tle

For live sub-satellite position, see the globe view (requires WebGL).

§ Visibility from observer

Set your observer location to see the next 7 days of passes ≥ 10°. The values pass through the URL so the page stays shareable.

No JS? Fill the form by hand. The geolocation button needs JavaScript.